Flag for Canada Weather past 2 weeks in Barrie, Ontario, Canada

Now
43 °F

Rain. Overcast.


Feels Like: 37 °F
Forecast: 34 / 46 °F
Wind: 10 mph from Southeast

Location: Borden

Current Time: Dec 24, 2014 at 10:09:40 PM

Latest Report: Dec 24, 2014 at 9:04 PM


Visibility: 1 mi

Pressure: 29.15 "Hg

Humidity: 100%

Dew point: 43 °F

Location of BarrieLocation

Historic Weather in Barrie — Graph

°F

Barrie temperature yesterday

Maximum temperature yesterday: 39 °F (at 3:00 PM)
Minimum temperature yesterday: 18 °F (at 5:02 AM)
Average temperature yesterday: 30 °F

Past Weeks' High & Low Weather Summary

 TemperatureHumidityPressure
High43 °F (Dec 24, 7:00 PM)100% (Dec 9, 8:01 PM)30.34 "Hg (Dec 9, 8:01 PM)
Low12 °F (Dec 20, 8:00 AM)69% (Dec 21, 11:00 AM)29.15 "Hg (Dec 24, 8:57 PM)
Average30 °F92%30.01 "Hg
* Reported Dec 9 8:01 PM — Dec 24 8:57 PM, Barrie, Weather by CustomWeather, © 2014

Note: Actual official high and low records may vary slightly from our data, if they occured in-between our weather recording intervals... More about our weather records

Advertising

Barrie weather history for previous 24 hours

 ConditionsComfort  
Time TempWeatherWind HumidityBarometerVisibility
8:57 PM
Dec 24
43 °FRain. Low clouds.9 mph100%29.15 "Hg1 mi
8:00 PM41 °FLow clouds.6 mph100%29.23 "Hg0 mi
7:50 PM43 °FLow clouds.6 mph100%29.22 "Hg0 mi
7:00 PM43 °FLow clouds.10 mph100%29.27 "Hg0 mi
6:00 PM41 °FDense fog.6 mph100%29.31 "Hg0 mi
5:00 PM41 °FDense fog.6 mph100%29.36 "Hg0 mi
4:00 PM41 °FDense fog.8 mph100%29.39 "Hg0 mi
3:00 PM39 °FDrizzle. Low clouds.3 mph100%29.45 "Hg1 mi
2:04 PM37 °FDrizzle. Dense fog.No wind100%29.46 "Hg0 mi
1:54 PM37 °FDrizzle. Dense fog.No wind100%29.46 "Hg0 mi
1:00 PM37 °FDense fog.No wind100%29.53 "Hg0 mi
12:00 PM37 °FDense fog.No wind100%29.56 "Hg0 mi
11:03 AM37 °FDense fog.No wind100%29.58 "Hg0 mi
10:03 AM36 °FDrizzle. Low clouds.No wind100%29.63 "Hg1 mi
10:00 AM36 °FDrizzle. Low clouds.No wind100%29.66 "Hg1 mi
9:59 AM36 °FDrizzle. Low clouds.No wind100%29.64 "Hg1 mi
9:04 AM36 °FDrizzle. Dense fog.2 mph100%29.65 "Hg1 mi
9:01 AM36 °FDrizzle. Dense fog.No wind100%29.64 "Hg1 mi
8:02 AM34 °FLight rain. Dense fog.2 mph100%29.65 "Hg1 mi
7:00 AM36 °FLight rain. Dense fog.No wind100%29.70 "Hg1 mi
6:00 AM36 °FDense fog.2 mph100%29.73 "Hg1 mi
5:59 AM34 °FDense fog.2 mph100%29.71 "Hg1 mi
5:04 AM36 °FDrizzle. Low clouds.2 mph100%29.72 "Hg1 mi
5:00 AM37 °FDrizzle. Low clouds.No wind100%29.74 "Hg1 mi
4:56 AM37 °FDrizzle. Low clouds.2 mph100%29.74 "Hg1 mi
4:00 AM36 °FLight rain. Dense fog.5 mph100%29.78 "Hg1 mi
3:55 AM36 °FLight rain. Dense fog.3 mph100%29.77 "Hg1 mi
3:04 AM36 °FRain. Dense fog.No wind100%29.81 "Hg1 mi
2:04 AM36 °FDense fog.No wind100%29.80 "Hg1 mi
2:00 AM36 °FDense fog.No wind100%29.83 "Hg1 mi
1:00 AM36 °FLight rain. Dense fog.No wind100%29.83 "Hg0 mi
12:00 AM36 °FLight rain. Dense fog.2 mph100%29.86 "Hg0 mi
11:48 PM
Dec 23
36 °FLight rain. Dense fog.No wind100%29.85 "Hg0 mi
11:01 PM36 °FDense fog.3 mph100%29.87 "Hg0 mi
10:00 PM36 °FLow clouds.2 mph100%29.88 "Hg0 mi
Weather by CustomWeather, © 2014

See weather overviewHow to use our weather pages